Change the Weather History Date:

Saturday, April 26, 2014

  Actual Average (KMHK) Record (KMHK)
Temperature  
Mean Temperature 72 °F 57 °F  
Max Temperature 82 °F 70 °F 87 °F (2001)
Min Temperature 61 °F 45 °F 30 °F (2005)
Degree Days  
Heating Degree Days 0 8  
Month to date heating degree days 315  
Since 1 July heating degree days 5151  
Cooling Degree Days 6 1  
Month to date cooling degree days 15  
Year to date cooling degree days 17  
Growing Degree Days 22 (Base 50)    
Moisture  
Dew Point 51 °F    
Average Humidity 48    
Maximum Humidity 62    
Minimum Humidity 41    
Precipitation  
Precipitation 0.01 in 0.12 in 0.84 in (1999)
Month to date precipitation 2.24  
Year to date precipitation 6.16  
Sea Level Pressure  
Sea Level Pressure 29.57 in    
Wind  
Wind Speed 14 mph (SSE)    
Max Wind Speed 24 mph    
Max Gust Speed 33 mph    
Visibility 10 miles    
Events      
T = Trace of Precipitation, MM = Missing Value Source: NWS Daily Summary

Daily Weather History Graph

Daily Weather History Graph

Search for Another Location

Airport or City:

Trip Planner

Search our weather history database for the weather conditions in past years. The results will help you decide how hot, cold, wet, or windy it might be!

Date:

Astronomy

Apr. 26, 2014 Rise Set
Actual Time 6:35 AM CDT 8:15 PM CDT
Civil Twilight 6:06 AM CDT 8:43 PM CDT
Nautical Twilight 5:32 AM CDT 9:18 PM CDT
Astronomical Twilight 4:55 AM CDT 9:54 PM CDT
Moon 4:58 AM CDT (4/26) 5:46 PM CDT (4/26)
Length of Visible Light 14h 36m
Length of Day
13h 39m
Waning Crescent, 8% of the Moon is Illuminated
Apr 26
Waning Crescent
Apr 29
New
May 6
First Quarter
May 14
Full
May 21
Last Quarter

Hourly Weather History & Observations

Time (CDT) Temp. Heat Index Dew Point Humidity Pressure Visibility Wind Dir Wind Speed Gust Speed Precip Events Conditions
12:58 AM 64.2 °F - 41.5 °F 44% 29.73 in 10.0 mi South 17.3 mph - N/A   Clear
1:58 AM 64.0 °F - 41.4 °F 43% 29.73 in 10.0 mi South 13.8 mph - N/A   Clear
2:58 AM 62.6 °F - 41.9 °F 47% 29.72 in 10.0 mi South 12.7 mph - N/A   Clear
3:58 AM 61.2 °F - 41.5 °F 48% 29.70 in 10.0 mi South 6.9 mph - N/A   Clear
4:58 AM 61.7 °F - 40.6 °F 46% 29.68 in 10.0 mi South 6.9 mph - N/A   Partly Cloudy
5:58 AM 61.9 °F - 40.8 °F 46% 29.67 in 10.0 mi SSE 8.1 mph - N/A   Partly Cloudy
6:58 AM 62.2 °F - 40.8 °F 45% 29.65 in 10.0 mi SSE 12.7 mph - N/A   Scattered Clouds
7:58 AM 63.0 °F - 41.9 °F 46% 29.66 in 10.0 mi Variable 2.3 mph - N/A   Clear
8:58 AM 63.9 °F - 42.3 °F 45% 29.66 in 10.0 mi SSE 9.2 mph 20.7 mph N/A   Scattered Clouds
9:58 AM 69.3 °F - 45.1 °F 42% 29.64 in 10.0 mi SSE 17.3 mph 26.5 mph N/A   Clear
10:58 AM 72.5 °F - 47.5 °F 41% 29.62 in 10.0 mi SSE 18.4 mph 26.5 mph N/A   Clear
11:58 AM 76.1 °F - 50.7 °F 41% 29.60 in 10.0 mi SE 20.7 mph 26.5 mph N/A   Scattered Clouds
12:58 PM 78.8 °F - 53.2 °F 41% 29.57 in 10.0 mi SSE 18.4 mph 29.9 mph N/A   Clear
1:58 PM 81.0 °F 80.8 °F 55.6 °F 42% 29.53 in 10.0 mi SSE 24.2 mph 29.9 mph N/A   Partly Cloudy
2:58 PM 79.0 °F - 56.8 °F 46% 29.52 in 10.0 mi SE 19.6 mph 28.8 mph N/A   Scattered Clouds
3:58 PM 79.0 °F - 58.1 °F 49% 29.49 in 10.0 mi SE 18.4 mph 29.9 mph N/A   Mostly Cloudy
4:58 PM 82.9 °F 82.8 °F 58.8 °F 44% 29.46 in 10.0 mi SE 20.7 mph 33.4 mph N/A   Clear
5:58 PM 82.0 °F 82.1 °F 59.0 °F 45% 29.45 in 10.0 mi SSE 20.7 mph 29.9 mph N/A   Clear
6:58 PM 79.2 °F - 58.6 °F 49% 29.44 in 10.0 mi SE 18.4 mph 29.9 mph 0.01 in   Clear
7:58 PM 76.3 °F - 59.2 °F 55% 29.44 in 10.0 mi SE 12.7 mph 24.2 mph N/A   Clear
8:58 PM 74.7 °F - 60.3 °F 61% 29.44 in 10.0 mi SE 11.5 mph 19.6 mph N/A   Clear
9:58 PM 74.5 °F - 60.8 °F 62% 29.45 in 10.0 mi SSE 12.7 mph 23.0 mph N/A   Clear
10:58 PM 73.8 °F - 59.7 °F 61% 29.44 in 10.0 mi SSE 16.1 mph 26.5 mph N/A   Clear
11:58 PM 73.8 °F - 58.8 °F 59% 29.44 in 10.0 mi SSE 18.4 mph 26.5 mph N/A   Clear